Location: Beneden-Haastrecht
(52.0012°N, 4.7557°E)
Time: 03:34:33
(UTC+00:00)

Cosmos 2058 - Pass Details

Date: 24 October 2020
Orbit: 562 x 584 km, 82.5° (Epoch: 27 November)

Event Time Altitude Azimuth Distance (km) Brightness Sun altitude
Rises 17:13:43 0° 1° (N) 2,772 6.3 -7.8°
Reaches altitude 10° 17:16:41 10° 24° (NNE) 1,868 5.2 -8.2°
Maximum altitude 17:19:14 16° 62° (ENE) 1,523 4.5 -8.6°
Enters shadow 17:21:35 11° 99° (E) 1,815 4.8 -9.0°
